Home > Weather > Lemgo > Past weeks

Flag for Germany Past Weather in Lemgo, North Rhine-Westphalia, Germany — Yesterday and Last 2 Weeks

Now
52 °F

Mostly cloudy.


Feels Like: 49 °F
Forecast: 45 / 66 °F
Wind: 8 mph from Northwest

Location: Bueckeburg

Current Time: May 24, 2016 at 11:48:27 PM

Latest Report: May 24, 2016 at 11:20 PM


Visibility: N/A

Pressure: 29.98 "Hg

Humidity: 88%

Dew Point: 48 °F

Location of LemgoLocation

Past Weather in Lemgo — Graph

°F

Lemgo Temperature Yesterday

Maximum temperature yesterday: 66 °F (at 6:20 PM)
Minimum temperature yesterday: 55 °F (at 11:20 PM)
Average temperature yesterday: 61 °F

High & Low Weather Summary for the Past Weeks

 TemperatureHumidityPressure
High79 °F (May 22, 2:20 PM)100% (May 22, 8:20 PM)30.07 "Hg (May 22, 8:20 PM)
Low41 °F (May 15, 4:20 AM)29% (May 13, 2:20 PM)29.53 "Hg (May 12, 5:20 PM)
Average58 °F68%29.85 "Hg
* Reported May 9 10:20 PM — May 24 10:20 PM, Lemgo, Weather by CustomWeather, © 2016

Note: Actual official high and low records may vary slightly from our data, if they occured in-between our weather recording intervals... More about our weather records

Advertising

Lemgo Weather History for the Previous 24 Hours

Scroll right to see more
 ConditionsComfort  
Time TempWeatherWind HumidityBarometerVisibility
10:20 PM
Tue, May 24
52 °FMore clouds than sun.6 mph88%29.98 "HgN/A
9:20 PM54 °FMore clouds than sun.6 mph82%29.95 "HgN/A
8:20 PM54 °FPartly sunny.8 mph82%29.95 "HgN/A
7:20 PM54 °FPartly sunny.12 mph82%29.95 "HgN/A
6:20 PM55 °FPartly sunny.10 mph77%29.95 "HgN/A
5:20 PM55 °FBroken clouds.12 mph77%29.95 "HgN/A
4:20 PM55 °FBroken clouds.14 mph77%29.95 "HgN/A
3:20 PM55 °FBroken clouds.12 mph77%29.95 "HgN/A
2:20 PM55 °FPartly sunny.13 mph77%29.95 "HgN/A
1:20 PM54 °FPartly sunny.12 mph82%29.95 "HgN/A
12:20 PM52 °FPartly sunny.10 mph88%29.95 "HgN/A
11:20 AM52 °FPartly sunny.13 mph88%29.95 "HgN/A
10:20 AM50 °FPartly sunny.12 mph94%29.95 "HgN/A
9:20 AM50 °FPartly sunny.10 mph94%29.95 "Hg5 mi
8:20 AM50 °FDrizzle. Partly sunny.8 mph94%29.95 "Hg4 mi
7:20 AM50 °FDrizzle. Partly sunny.12 mph94%29.92 "Hg3 mi
6:20 AM52 °FDrizzle. Partly sunny.12 mph94%29.92 "Hg4 mi
5:20 AM52 °FCool.13 mph94%29.92 "Hg3 mi
4:20 AM52 °FCool.10 mph94%29.89 "Hg3 mi
3:20 AM52 °FCool.13 mph100%29.89 "Hg2 mi
2:20 AM54 °FCool.10 mph94%29.92 "Hg3 mi
1:20 AM54 °FCool.10 mph94%29.92 "Hg2 mi
12:20 AM54 °FCool.9 mph94%29.89 "Hg3 mi
11:20 PM
Mon, May 23
55 °FCool.12 mph94%29.89 "Hg3 mi
Weather by CustomWeather, © 2016

See weather overviewHow to use our weather pages